Location: Lafig�re
(44.4503°N, 4.0357°E)
Time: 15:51:58
(UTC+00:00)

Abrixas rocket - Pass Details

Date: 24 September 2020
Orbit: 328 x 335 km, 48.4° (Epoch: 26 October)

Event Time Altitude Azimuth Distance (km) Brightness Sun altitude
Rises 18:28:55 0° 291° (WNW) 2,100 7.7 -10.1°
Reaches altitude 10° 18:30:57 10° 297° (WNW) 1,260 6.0 -10.4°
Maximum altitude 18:33:42 49° 15° (NNE) 434 2.3 -10.9°
Enters shadow 18:35:24 20° 84° (E) 848 3.2 -11.2°
